Cancun, Mexico

12:37 PM on November 21, 2018 (GMT +0000)
Cancun International

Weather History for MMUN - July, 2018

Change the Weather History Date:

Thursday, July 12, 2018

  Actual Average Record
Temperature  
Mean Temperature 80 °F -  
Max Temperature 87 °F 89 °F 93 °F (2000)
Min Temperature 73 °F 73 °F 66 °F (2000)
Cooling Degree Days 15    
Growing Degree Days 30 (Base 50)    
Moisture  
Dew Point 76 °F    
Average Humidity 84    
Maximum Humidity 100    
Minimum Humidity 70    
Precipitation  
Precipitation 0.00 in - - ()
Sea Level Pressure  
Sea Level Pressure 30.04 in    
Wind  
Wind Speed 5 mph ()    
Max Wind Speed 12 mph    
Max Gust Speed -    
Visibility 7.0 miles    
Events      
Averages and records for this station are not official NWS values.
T = Trace of Precipitation, MM = Missing Value Source: Averaged Metar Reports

Daily Weather History Graph

Daily Weather History Graph

Search for Another Location

Airport or City:

Astronomy

Jul. 12, 2018 Rise Set
Actual Time 6:13 AM EST 7:32 PM EST
Civil Twilight 5:49 AM EST 7:57 PM EST
Nautical Twilight 5:20 AM EST 8:26 PM EST
Astronomical Twilight 4:49 AM EST 8:56 PM EST
Moon 5:38 AM EST (7/12) 7:18 PM EST (7/12)
Length of Visible Light 14h 07m
Length of Day
13h 18m
Waning Crescent, 0% of the Moon is Illuminated
Jul 12
Waning Crescent
Jul 12
New
Jul 19
First Quarter
Jul 27
Full
Aug 4
Last Quarter

Hourly Weather History & Observations

Time (EST) Temp. Heat Index Dew Point Humidity Pressure Visibility Wind Dir Wind Speed Gust Speed Precip Events Conditions
12:45 AM 78.8 °F - 77.0 °F 94% 30.03 in 7.0 mi NE 3.5 mph - N/A   Scattered Clouds
1:43 AM 78.8 °F - 77.0 °F 94% 30.00 in 7.0 mi ENE 3.5 mph - N/A   Scattered Clouds
2:45 AM 75.2 °F - 75.2 °F 100% 29.99 in 7.0 mi Calm Calm - N/A   Scattered Clouds
3:41 AM 75.2 °F - 75.2 °F 100% 29.99 in 7.0 mi Calm Calm - N/A   Scattered Clouds
4:47 AM 73.4 °F - 73.4 °F 100% 29.99 in 7.0 mi NW 3.5 mph - N/A   Scattered Clouds
5:45 AM 73.4 °F - 73.4 °F 100% 29.98 in 7.0 mi NW 2.3 mph - N/A   Scattered Clouds
6:47 AM 75.2 °F - 75.2 °F 100% 30.00 in 7.0 mi NNW 3.5 mph - N/A   Scattered Clouds
7:46 AM 78.8 °F - 78.8 °F 100% 30.03 in 7.0 mi Calm Calm - N/A   Scattered Clouds
8:46 AM 84.2 °F 94.1 °F 77.0 °F 79% 30.05 in 7.0 mi NNE 8.1 mph - N/A   Scattered Clouds
9:48 AM 84.2 °F 94.1 °F 77.0 °F 79% 30.07 in 7.0 mi NE 9.2 mph - N/A   Scattered Clouds
10:49 AM 87.8 °F 99.7 °F 77.0 °F 70% 30.07 in 7.0 mi East 8.1 mph - N/A   Mostly Cloudy
11:47 AM 86.0 °F 96.9 °F 77.0 °F 74% 30.06 in 7.0 mi East 6.9 mph - N/A   Mostly Cloudy
12:50 PM 86.0 °F 96.9 °F 77.0 °F 74% 30.06 in 7.0 mi ENE 9.2 mph - N/A   Mostly Cloudy
1:50 PM 86.0 °F 96.9 °F 77.0 °F 74% 30.06 in 7.0 mi ENE 11.5 mph - N/A   Mostly Cloudy
2:40 PM 86.0 °F 95.1 °F 75.2 °F 70% 30.04 in 7.0 mi ENE 8.1 mph - N/A   Mostly Cloudy
3:42 PM 86.0 °F 95.1 °F 75.2 °F 70% 30.05 in 7.0 mi East 8.1 mph - N/A   Mostly Cloudy
4:50 PM 86.0 °F 95.1 °F 75.2 °F 70% 30.03 in 7.0 mi ENE 10.4 mph - N/A   Mostly Cloudy
5:49 PM 84.2 °F 92.3 °F 75.2 °F 74% 30.03 in 7.0 mi SE 8.1 mph - N/A   Mostly Cloudy
6:55 PM 84.2 °F 92.3 °F 75.2 °F 74% 30.04 in 7.0 mi East 5.8 mph - N/A   Mostly Cloudy
7:52 PM 82.4 °F 90.9 °F 77.0 °F 84% 30.06 in 7.0 mi East 5.8 mph - N/A   Mostly Cloudy
8:50 PM 82.4 °F 90.9 °F 77.0 °F 84% 30.07 in 7.0 mi East 9.2 mph - N/A   Scattered Clouds
9:48 PM 82.4 °F 90.9 °F 77.0 °F 84% 30.09 in 7.0 mi East 9.2 mph - N/A   Scattered Clouds
10:47 PM 82.4 °F 90.9 °F 77.0 °F 84% 30.08 in 7.0 mi ESE 8.1 mph - N/A   Scattered Clouds
11:46 PM 82.4 °F 90.9 °F 77.0 °F 84% 30.08 in 7.0 mi ESE 6.9 mph - N/A   Scattered Clouds